User: anonymous   Login
Location: Palomar Mountain Lodge
(33.3110°N, 116.8495°W)
Time: 16:10:45
(UTC-07:00)
Language:

Cosmos 1680 Rocket - Orbit

View from above orbital plane
View from above orbital plane
View from above satellite
View from above satellite

Ground track
Ground track

The orbit data is extracted from the following two-line orbital elements,

1 16012U 85079B   19109.08321375  .00000062  00000-0  30082-4 0  9993
2 16012  74.0604 344.5069 0013951  80.8161 279.4570 14.36315575760116
Epoch (UTC): 19 April 2019 01:59:49
Eccentricity: 0.0013951
inclination: 74.0604°
perigee height: 761 km
apogee height: 780 km
right ascension of ascending node: 344.5069°
argument of perigee: 80.8161°
revolutions per day: 14.36315575
mean anomaly at epoch: 279.4570°
orbit number at epoch: 76011

The dashed part of the orbit path shows where the satellite is in the earth's shadow,  

DLR